QPF
0.00 0.00 0.00 0.00 0.00 0.00 0.00 0.01 0.00 0.00 0.00 0.00 0.00 0.00 0.00 0.01 0.01 0.00 0.01 0.02 0.01 0.01 0.02 0.03 0.04 0.04 0.03 0.02 0.02 0.03 0.03 0.03 0.03 0.03 0.03 0.04 0.05 0.05 0.04 0.04 0.05 0.06 0.07 0.07 0.07 0.07 0.06 0.06 0.06
0.00 0.00 0.00 0.00 0.00 0.00 0.00 0.00 0.00 0.00 0.00 0.00 0.00 0.00 0.01 0.01 0.00 0.00 0.01 0.02 0.01 0.01 0.01 0.01 0.02 0.03 0.02 0.02 0.02 0.03 0.02 0.02 0.03 0.03 0.02 0.03 0.04 0.04 0.04 0.05 0.05 0.05 0.05 0.05 0.05 0.05 0.04 0.04 0.04
0.00 0.00 0.00 0.00 0.00 0.00 0.00 0.00 0.01 0.00 0.00 0.00 0.00 0.00 0.00 0.00 0.00 0.01 0.01 0.01 0.01 0.00 0.01 0.02 0.02 0.02 0.02 0.02 0.02 0.03 0.02 0.03 0.03 0.03 0.03 0.03 0.04 0.04 0.04 0.05 0.05 0.05 0.04 0.04 0.03 0.04 0.03 0.03 0.04
0.00 0.00 0.00 0.00 0.00 0.00 0.00 0.00 0.00 0.00 0.00 0.00 0.00 0.00 0.00 0.01 0.00 0.00 0.00 0.00 0.00 0.00 0.01 0.02 0.02 0.02 0.02 0.02 0.02 0.02 0.02 0.03 0.03 0.03 0.05 0.04 0.05 0.05 0.04 0.05 0.05 0.05 0.04 0.03 0.03 0.03 0.03 0.03 0.05
0.00 0.00 0.00 0.00 0.00 0.00 0.00 0.00 0.00 0.00 0.00 0.00 0.00 0.00 0.01 0.01 0.00 0.00 0.00 0.00 0.00 0.00 0.01 0.02 0.03 0.03 0.04 0.03 0.03 0.02 0.02 0.03 0.04 0.04 0.04 0.03 0.04 0.05 0.04 0.04 0.05 0.04 0.03 0.03 0.03 0.03 0.04 0.05 0.07
0.00 0.00 0.00 0.00 0.00 0.00 0.00 0.00 0.00 0.00 0.00 0.00 0.00 0.00 0.01 0.01 0.01 0.00 0.00 0.00 0.00 0.00 0.01 0.02 0.02 0.04 0.04 0.04 0.03 0.02 0.02 0.02 0.03 0.04 0.03 0.03 0.03 0.04 0.03 0.03 0.04 0.02 0.02 0.03 0.03 0.05 0.06 0.08 0.10
0.00 0.00 0.00 0.00 0.00 0.00 0.00 0.00 0.00 0.00 0.00 0.00 0.00 0.00 0.01 0.01 0.01 0.00 0.00 0.00 0.00 0.01 0.02 0.03 0.03 0.03 0.04 0.04 0.03 0.02 0.02 0.03 0.03 0.03 0.03 0.03 0.03 0.03 0.02 0.02 0.03 0.03 0.03 0.03 0.04 0.05 0.05 0.07 0.08
0.00 0.00 0.00 0.00 0.00 0.00 0.00 0.00 0.00 0.00 0.00 0.00 0.00 0.00 0.00 0.01 0.01 0.00 0.00 0.00 0.01 0.01 0.01 0.02 0.03 0.03 0.03 0.03 0.03 0.02 0.02 0.02 0.03 0.03 0.03 0.03 0.03 0.02 0.02 0.02 0.02 0.02 0.03 0.04 0.06 0.06 0.07 0.07 0.08
0.00 0.00 0.00 0.00 0.00 0.00 0.00 0.00 0.00 0.00 0.00 0.00 0.00 0.00 0.00 0.00 0.00 0.00 0.00 0.00 0.01 0.01 0.01 0.01 0.02 0.02 0.03 0.03 0.02 0.02 0.02 0.02 0.04 0.04 0.02 0.03 0.04 0.03 0.02 0.02 0.03 0.02 0.02 0.04 0.06 0.06 0.06 0.06 0.07
0.00 0.00 0.00 0.00 0.00 0.00 0.00 0.00 0.00 0.00 0.00 0.00 0.00 0.00 0.00 0.00 0.00 0.00 0.00 0.01 0.01 0.01 0.01 0.01 0.02 0.02 0.03 0.02 0.03 0.04 0.02 0.03 0.05 0.05 0.03 0.03 0.03 0.04 0.02 0.03 0.03 0.03 0.03 0.04 0.06 0.05 0.04 0.02 0.02
0.00 0.00 0.00 0.00 0.00 0.00 0.00 0.00 0.00 0.00 0.00 0.00 0.00 0.00 0.00 0.00 0.00 0.00 0.00 0.01 0.01 0.01 0.01 0.02 0.03 0.02 0.02 0.05 0.05 0.04 0.03 0.03 0.04 0.04 0.03 0.03 0.01 0.02 0.02 0.04 0.03 0.03 0.03 0.03 0.03 0.03 0.01 0.01 0.01
0.00 0.00 0.00 0.00 0.00 0.00 0.00 0.00 0.00 0.00 0.00 0.00 0.00 0.00 0.00 0.00 0.00 0.00 0.00 0.01 0.02 0.02 0.01 0.02 0.03 0.03 0.03 0.04 0.06 0.05 0.04 0.04 0.03 0.03 0.03 0.02 0.02 0.02 0.02 0.03 0.03 0.02 0.02 0.02 0.01 0.02 0.02 0.02 0.01
0.00 0.00 0.00 0.00 0.00 0.00 0.00 0.00 0.00 0.00 0.00 0.00 0.00 0.00 0.00 0.00 0.00 0.00 0.00 0.01 0.01 0.03 0.03 0.02 0.02 0.04 0.04 0.05 0.05 0.05 0.05 0.04 0.03 0.03 0.04 0.03 0.03 0.03 0.03 0.03 0.04 0.01 0.01 0.02 0.02 0.02 0.02 0.03 0.02
0.00 0.00 0.00 0.00 0.00 0.00 0.00 0.00 0.00 0.00 0.00 0.00 0.01 0.01 0.01 0.00 0.00 0.00 0.01 0.01 0.02 0.03 0.03 0.02 0.01 0.03 0.04 0.05 0.06 0.05 0.04 0.05 0.03 0.04 0.05 0.05 0.04 0.05 0.05 0.04 0.04 0.03 0.02 0.02 0.03 0.04 0.05 0.04 0.04
0.00 0.00 0.00 0.00 0.00 0.00 0.00 0.00 0.00 0.00 0.00 0.00 0.00 0.01 0.00 0.00 0.00 0.00 0.01 0.02 0.02 0.02 0.02 0.01 0.02 0.02 0.03 0.03 0.04 0.05 0.06 0.06 0.05 0.05 0.06 0.06 0.04 0.06 0.06 0.06 0.06 0.06 0.04 0.04 0.04 0.04 0.05 0.04 0.03
0.00 0.00 0.00 0.00 0.00 0.00 0.00 0.00 0.00 0.00 0.00 0.00 0.00 0.00 0.00 0.00 0.00 0.00 0.01 0.02 0.01 0.01 0.01 0.02 0.03 0.02 0.02 0.03 0.04 0.07 0.08 0.08 0.08 0.05 0.05 0.05 0.05 0.07 0.07 0.06 0.06 0.06 0.06 0.05 0.07 0.06 0.06 0.05 0.04
0.00 0.00 0.00 0.00 0.00 0.00 0.00 0.00 0.00 0.00 0.00 0.00 0.00 0.00 0.00 0.00 0.00 0.00 0.01 0.01 0.02 0.03 0.03 0.03 0.03 0.03 0.04 0.05 0.08 0.12 0.13 0.11 0.09 0.05 0.05 0.06 0.08 0.09 0.11 0.09 0.08 0.07 0.06 0.06 0.06 0.06 0.07 0.07 0.06
0.00 0.00 0.00 0.00 0.00 0.00 0.00 0.00 0.00 0.00 0.00 0.00 0.00 0.00 0.00 0.00 0.00 0.00 0.01 0.01 0.01 0.02 0.04 0.05 0.05 0.06 0.07 0.07 0.09 0.12 0.11 0.10 0.08 0.05 0.05 0.07 0.08 0.08 0.10 0.10 0.08 0.06 0.07 0.08 0.08 0.07 0.08 0.09 0.08
0.00 0.00 0.00 0.00 0.00 0.00 0.00 0.00 0.00 0.00 0.00 0.00 0.00 0.00 0.00 0.00 0.00 0.00 0.00 0.00 0.01 0.01 0.03 0.06 0.06 0.05 0.06 0.07 0.08 0.10 0.09 0.09 0.08 0.06 0.06 0.06 0.07 0.06 0.08 0.06 0.08 0.06 0.06 0.07 0.07 0.07 0.07 0.06 0.06
0.00 0.00 0.00 0.00 0.00 0.00 0.00 0.00 0.00 0.00 0.00 0.00 0.00 0.01 0.01 0.01 0.01 0.01 0.00 0.00 0.00 0.01 0.01 0.03 0.04 0.04 0.05 0.06 0.07 0.08 0.07 0.08 0.08 0.06 0.05 0.06 0.07 0.07 0.07 0.07 0.06 0.05 0.06 0.07 0.07 0.09 0.07 0.06 0.05
0.00 0.00 0.00 0.00 0.00 0.00 0.00 0.00 0.00 0.00 0.00 0.00 0.00 0.01 0.01 0.01 0.02 0.03 0.03 0.01 0.01 0.01 0.02 0.03 0.03 0.03 0.03 0.04 0.06 0.06 0.08 0.08 0.07 0.07 0.06 0.05 0.06 0.05 0.06 0.06 0.07 0.06 0.05 0.06 0.08 0.09 0.10 0.10 0.06
0.00 0.00 0.00 0.00 0.00 0.00 0.00 0.00 0.00 0.00 0.00 0.00 0.00 0.01 0.02 0.01 0.02 0.03 0.01 0.01 0.01 0.01 0.01 0.02 0.02 0.02 0.03 0.03 0.05 0.05 0.08 0.09 0.07 0.06 0.05 0.06 0.08 0.08 0.05 0.05 0.07 0.09 0.08 0.07 0.07 0.07 0.09 0.10 0.07
0.00 0.00 0.00 0.00 0.00 0.00 0.00 0.00 0.00 0.00 0.00 0.00 0.00 0.01 0.03 0.01 0.01 0.01 0.01 0.02 0.01 0.01 0.01 0.01 0.02 0.03 0.03 0.02 0.03 0.04 0.05 0.05 0.04 0.04 0.05 0.05 0.06 0.08 0.05 0.06 0.10 0.11 0.09 0.07 0.07 0.08 0.08 0.07 0.08
0.00 0.00 0.00 0.00 0.00 0.00 0.00 0.00 0.00 0.00 0.00 0.00 0.00 0.01 0.02 0.01 0.01 0.01 0.01 0.01 0.01 0.01 0.02 0.03 0.02 0.03 0.03 0.02 0.02 0.02 0.03 0.03 0.03 0.04 0.06 0.07 0.06 0.05 0.05 0.06 0.08 0.08 0.07 0.07 0.07 0.09 0.09 0.08 0.09
0.00 0.00 0.00 0.00 0.00 0.00 0.00 0.00 0.00 0.00 0.00 0.00 0.00 0.01 0.01 0.01 0.01 0.02 0.01 0.00 0.00 0.01 0.02 0.03 0.03 0.02 0.02 0.02 0.02 0.02 0.02 0.02 0.03 0.04 0.06 0.07 0.06 0.05 0.05 0.04 0.05 0.06 0.06 0.06 0.07 0.07 0.07 0.09 0.11
0.00 0.00 0.00 0.00 0.00 0.00 0.00 0.00 0.00 0.00 0.00 0.00 0.00 0.00 0.00 0.00 0.01 0.01 0.00 0.00 0.00 0.01 0.01 0.02 0.04 0.04 0.02 0.02 0.02 0.02 0.03 0.04 0.05 0.04 0.04 0.05 0.05 0.05 0.05 0.03 0.03 0.03 0.03 0.04 0.06 0.06 0.07 0.08 0.10
0.00 0.00 0.00 0.00 0.00 0.00 0.00 0.00 0.00 0.00 0.00 0.00 0.00 0.00 0.00 0.00 0.00 0.00 0.00 0.00 0.00 0.01 0.01 0.02 0.04 0.04 0.03 0.03 0.04 0.04 0.05 0.05 0.05 0.04 0.03 0.03 0.04 0.05 0.05 0.03 0.03 0.03 0.03 0.03 0.04 0.04 0.06 0.08 0.09
0.00 0.00 0.00 0.00 0.00 0.00 0.00 0.00 0.00 0.00 0.00 0.00 0.00 0.00 0.00 0.00 0.00 0.00 0.00 0.00 0.00 0.01 0.01 0.01 0.01 0.03 0.03 0.04 0.05 0.05 0.04 0.03 0.03 0.02 0.01 0.01 0.02 0.02 0.03 0.03 0.02 0.02 0.02 0.03 0.03 0.03 0.04 0.06 0.08
0.00 0.00 0.00 0.00 0.00 0.00 0.00 0.00 0.00 0.00 0.00 0.00 0.00 0.00 0.00 0.00 0.00 0.00 0.00 0.00 0.00 0.00 0.00 0.00 0.00 0.01 0.01 0.02 0.02 0.02 0.01 0.01 0.01 0.00 0.00 0.01 0.01 0.02 0.02 0.02 0.02 0.03 0.02 0.02 0.03 0.03 0.04 0.05 0.07
0.00 0.00 0.00 0.00 0.00 0.00 0.00 0.00 0.00 0.00 0.00 0.00 0.00 0.00 0.00 0.00 0.00 0.00 0.01 0.01 0.01 0.01 0.00 0.00 0.00 0.00 0.01 0.01 0.01 0.01 0.00 0.00 0.01 0.00 0.01 0.01 0.02 0.03 0.02 0.03 0.03 0.03 0.03 0.03 0.04 0.03 0.04 0.05 0.06
MSLP
1008.62 1009.08 1009.71 1010.44 1011.16 1011.81 1012.31 1012.66 1012.88 1013.00 1013.10 1013.20 1013.35 1013.52 1013.68 1013.80 1013.84 1013.81 1013.72 1013.62 1013.58 1013.64 1013.85 1014.18 1014.60 1015.03 1015.40 1015.63 1015.69 1015.60 1015.40 1015.15 1014.92 1014.78 1014.75 1014.81 1014.93 1015.07 1015.17 1015.21 1015.20 1015.16 1015.13 1015.17 1015.28 1015.48 1015.74 1016.02 1016.26
1008.95 1009.54 1010.29 1011.09 1011.84 1012.45 1012.88 1013.11 1013.17 1013.13 1013.07 1013.04 1013.09 1013.20 1013.36 1013.50 1013.61 1013.64 1013.62 1013.59 1013.60 1013.69 1013.90 1014.24 1014.65 1015.08 1015.45 1015.70 1015.81 1015.77 1015.62 1015.42 1015.25 1015.14 1015.12 1015.18 1015.28 1015.38 1015.44 1015.45 1015.42 1015.39 1015.39 1015.46 1015.63 1015.88 1016.19 1016.49 1016.73
1009.38 1010.08 1010.89 1011.72 1012.45 1013.00 1013.32 1013.42 1013.35 1013.17 1012.98 1012.86 1012.83 1012.92 1013.07 1013.25 1013.40 1013.49 1013.53 1013.55 1013.59 1013.70 1013.91 1014.24 1014.64 1015.07 1015.45 1015.73 1015.89 1015.91 1015.83 1015.71 1015.60 1015.53 1015.53 1015.58 1015.66 1015.73 1015.75 1015.74 1015.70 1015.67 1015.70 1015.81 1016.03 1016.32 1016.64 1016.94 1017.17
1009.87 1010.63 1011.45 1012.25 1012.92 1013.39 1013.61 1013.60 1013.42 1013.15 1012.88 1012.71 1012.65 1012.72 1012.89 1013.09 1013.27 1013.41 1013.48 1013.52 1013.58 1013.69 1013.90 1014.21 1014.61 1015.03 1015.42 1015.73 1015.93 1016.02 1016.01 1015.96 1015.91 1015.90 1015.92 1015.98 1016.05 1016.09 1016.10 1016.07 1016.03 1016.02 1016.08 1016.22 1016.47 1016.77 1017.09 1017.37 1017.56
1010.33 1011.09 1011.89 1012.63 1013.21 1013.59 1013.73 1013.64 1013.41 1013.10 1012.82 1012.64 1012.59 1012.68 1012.86 1013.08 1013.28 1013.43 1013.51 1013.56 1013.62 1013.73 1013.92 1014.22 1014.59 1015.00 1015.40 1015.72 1015.95 1016.08 1016.14 1016.15 1016.16 1016.18 1016.24 1016.32 1016.40 1016.45 1016.46 1016.44 1016.42 1016.43 1016.51 1016.68 1016.92 1017.22 1017.52 1017.75 1017.89
1010.68 1011.39 1012.12 1012.77 1013.27 1013.57 1013.65 1013.54 1013.31 1013.03 1012.80 1012.67 1012.67 1012.80 1013.00 1013.23 1013.44 1013.58 1013.66 1013.70 1013.74 1013.84 1014.01 1014.29 1014.64 1015.03 1015.41 1015.73 1015.96 1016.11 1016.20 1016.25 1016.30 1016.37 1016.46 1016.57 1016.68 1016.76 1016.80 1016.81 1016.82 1016.86 1016.96 1017.13 1017.37 1017.63 1017.88 1018.05 1018.13
1010.85 1011.49 1012.12 1012.67 1013.08 1013.32 1013.39 1013.30 1013.13 1012.95 1012.81 1012.78 1012.87 1013.05 1013.29 1013.54 1013.74 1013.86 1013.92 1013.95 1013.97 1014.05 1014.21 1014.46 1014.78 1015.14 1015.48 1015.77 1015.99 1016.12 1016.21 1016.27 1016.34 1016.44 1016.58 1016.73 1016.88 1017.01 1017.10 1017.16 1017.21 1017.28 1017.39 1017.55 1017.75 1017.97 1018.15 1018.27 1018.28
1010.86 1011.40 1011.91 1012.36 1012.69 1012.89 1012.96 1012.94 1012.87 1012.81 1012.82 1012.91 1013.11 1013.37 1013.65 1013.91 1014.11 1014.22 1014.26 1014.27 1014.28 1014.35 1014.50 1014.73 1015.02 1015.34 1015.64 1015.88 1016.04 1016.14 1016.20 1016.25 1016.33 1016.45 1016.61 1016.81 1017.01 1017.19 1017.34 1017.45 1017.53 1017.63 1017.74 1017.88 1018.05 1018.21 1018.33 1018.38 1018.35
1010.75 1011.17 1011.57 1011.91 1012.17 1012.34 1012.43 1012.48 1012.52 1012.60 1012.76 1012.99 1013.30 1013.64 1013.98 1014.26 1014.47 1014.57 1014.61 1014.61 1014.63 1014.70 1014.84 1015.06 1015.33 1015.61 1015.86 1016.04 1016.15 1016.20 1016.21 1016.23 1016.30 1016.42 1016.61 1016.84 1017.08 1017.31 1017.51 1017.66 1017.78 1017.88 1017.99 1018.11 1018.23 1018.34 1018.40 1018.41 1018.34
1010.60 1010.91 1011.19 1011.43 1011.62 1011.76 1011.87 1011.97 1012.11 1012.32 1012.60 1012.96 1013.37 1013.79 1014.19 1014.50 1014.72 1014.84 1014.89 1014.91 1014.95 1015.03 1015.19 1015.41 1015.67 1015.92 1016.13 1016.26 1016.31 1016.30 1016.27 1016.25 1016.29 1016.41 1016.60 1016.85 1017.12 1017.39 1017.61 1017.79 1017.93 1018.04 1018.13 1018.22 1018.31 1018.38 1018.40 1018.38 1018.30
1010.50 1010.72 1010.90 1011.05 1011.16 1011.25 1011.35 1011.48 1011.68 1011.96 1012.33 1012.78 1013.27 1013.76 1014.21 1014.57 1014.82 1014.98 1015.06 1015.11 1015.19 1015.31 1015.49 1015.73 1015.99 1016.22 1016.40 1016.50 1016.51 1016.46 1016.38 1016.33 1016.34 1016.44 1016.62 1016.87 1017.15 1017.43 1017.67 1017.86 1018.00 1018.10 1018.18 1018.25 1018.31 1018.35 1018.36 1018.33 1018.26
1010.55 1010.70 1010.79 1010.85 1010.88 1010.90 1010.95 1011.06 1011.26 1011.57 1011.98 1012.47 1013.01 1013.55 1014.05 1014.45 1014.75 1014.95 1015.08 1015.19 1015.30 1015.47 1015.68 1015.95 1016.22 1016.47 1016.64 1016.72 1016.71 1016.63 1016.53 1016.45 1016.44 1016.51 1016.68 1016.91 1017.18 1017.45 1017.69 1017.87 1018.00 1018.10 1018.17 1018.22 1018.27 1018.31 1018.33 1018.31 1018.26
1010.79 1010.88 1010.91 1010.88 1010.82 1010.75 1010.72 1010.77 1010.91 1011.18 1011.58 1012.08 1012.64 1013.21 1013.74 1014.19 1014.55 1014.80 1014.98 1015.14 1015.30 1015.50 1015.76 1016.05 1016.35 1016.61 1016.79 1016.88 1016.88 1016.80 1016.70 1016.60 1016.57 1016.62 1016.76 1016.97 1017.21 1017.46 1017.68 1017.85 1017.98 1018.06 1018.13 1018.19 1018.24 1018.29 1018.33 1018.34 1018.32
1011.21 1011.27 1011.25 1011.14 1010.98 1010.82 1010.68 1010.62 1010.68 1010.88 1011.22 1011.69 1012.24 1012.83 1013.39 1013.89 1014.29 1014.59 1014.82 1015.02 1015.21 1015.44 1015.71 1016.02 1016.33 1016.62 1016.83 1016.95 1016.98 1016.93 1016.83 1016.75 1016.70 1016.73 1016.84 1017.02 1017.24 1017.46 1017.66 1017.82 1017.94 1018.03 1018.10 1018.17 1018.24 1018.32 1018.38 1018.43 1018.44
1011.75 1011.80 1011.73 1011.56 1011.32 1011.05 1010.81 1010.64 1010.59 1010.70 1010.97 1011.39 1011.93 1012.52 1013.10 1013.64 1014.08 1014.42 1014.67 1014.88 1015.08 1015.31 1015.57 1015.88 1016.20 1016.51 1016.75 1016.91 1016.98 1016.97 1016.91 1016.84 1016.80 1016.81 1016.90 1017.05 1017.24 1017.44 1017.62 1017.78 1017.90 1018.00 1018.09 1018.18 1018.28 1018.38 1018.48 1018.57 1018.62
1012.33 1012.36 1012.26 1012.05 1011.75 1011.40 1011.07 1010.80 1010.65 1010.68 1010.88 1011.26 1011.77 1012.37 1012.97 1013.53 1013.99 1014.35 1014.61 1014.81 1014.98 1015.17 1015.40 1015.68 1015.99 1016.30 1016.57 1016.78 1016.90 1016.94 1016.92 1016.87 1016.84 1016.85 1016.91 1017.04 1017.20 1017.39 1017.57 1017.73 1017.87 1017.99 1018.10 1018.21 1018.33 1018.47 1018.60 1018.72 1018.80
1012.85 1012.87 1012.75 1012.52 1012.19 1011.80 1011.42 1011.08 1010.87 1010.84 1010.99 1011.34 1011.83 1012.42 1013.04 1013.61 1014.08 1014.44 1014.68 1014.83 1014.94 1015.07 1015.23 1015.46 1015.74 1016.04 1016.33 1016.57 1016.74 1016.83 1016.86 1016.84 1016.82 1016.83 1016.88 1016.99 1017.14 1017.32 1017.51 1017.69 1017.84 1017.98 1018.12 1018.25 1018.39 1018.54 1018.70 1018.84 1018.95
1013.24 1013.25 1013.14 1012.92 1012.60 1012.22 1011.83 1011.48 1011.24 1011.17 1011.30 1011.62 1012.11 1012.70 1013.31 1013.88 1014.35 1014.68 1014.87 1014.96 1014.99 1015.02 1015.10 1015.26 1015.49 1015.77 1016.07 1016.34 1016.56 1016.69 1016.76 1016.77 1016.76 1016.77 1016.81 1016.91 1017.06 1017.24 1017.44 1017.64 1017.82 1017.98 1018.13 1018.28 1018.42 1018.58 1018.74 1018.89 1019.02
1013.48 1013.49 1013.41 1013.24 1012.98 1012.65 1012.29 1011.97 1011.74 1011.67 1011.79 1012.09 1012.56 1013.14 1013.74 1014.30 1014.74 1015.03 1015.16 1015.17 1015.11 1015.05 1015.03 1015.11 1015.28 1015.54 1015.83 1016.13 1016.38 1016.55 1016.66 1016.69 1016.70 1016.70 1016.74 1016.83 1016.97 1017.16 1017.38 1017.60 1017.80 1017.98 1018.14 1018.28 1018.42 1018.55 1018.70 1018.86 1019.01
1013.59 1013.62 1013.59 1013.50 1013.33 1013.10 1012.82 1012.55 1012.36 1012.29 1012.40 1012.69 1013.13 1013.68 1014.25 1014.78 1015.18 1015.41 1015.48 1015.42 1015.27 1015.12 1015.02 1015.02 1015.14 1015.36 1015.65 1015.96 1016.23 1016.44 1016.57 1016.63 1016.64 1016.65 1016.68 1016.77 1016.91 1017.11 1017.34 1017.58 1017.80 1017.99 1018.14 1018.27 1018.37 1018.48 1018.61 1018.75 1018.91
1013.60 1013.67 1013.74 1013.76 1013.72 1013.60 1013.42 1013.22 1013.06 1013.00 1013.09 1013.33 1013.73 1014.22 1014.74 1015.22 1015.57 1015.76 1015.78 1015.65 1015.44 1015.21 1015.04 1014.98 1015.05 1015.25 1015.53 1015.84 1016.14 1016.37 1016.52 1016.60 1016.62 1016.63 1016.66 1016.74 1016.88 1017.08 1017.32 1017.58 1017.81 1018.00 1018.14 1018.24 1018.32 1018.39 1018.47 1018.59 1018.74
1013.58 1013.73 1013.91 1014.07 1014.16 1014.17 1014.09 1013.96 1013.82 1013.74 1013.77 1013.95 1014.26 1014.68 1015.13 1015.55 1015.85 1016.00 1015.98 1015.82 1015.57 1015.30 1015.09 1014.98 1015.02 1015.19 1015.46 1015.78 1016.08 1016.33 1016.50 1016.59 1016.62 1016.63 1016.65 1016.73 1016.87 1017.08 1017.33 1017.59 1017.83 1018.03 1018.16 1018.24 1018.28 1018.31 1018.35 1018.44 1018.57
1013.59 1013.84 1014.14 1014.44 1014.68 1014.80 1014.80 1014.71 1014.56 1014.44 1014.39 1014.47 1014.68 1015.00 1015.37 1015.72 1015.98 1016.10 1016.07 1015.90 1015.64 1015.37 1015.14 1015.01 1015.03 1015.19 1015.44 1015.75 1016.06 1016.31 1016.49 1016.59 1016.62 1016.63 1016.66 1016.73 1016.88 1017.09 1017.35 1017.62 1017.87 1018.07 1018.20 1018.27 1018.29 1018.28 1018.29 1018.34 1018.45
1013.63 1014.00 1014.44 1014.88 1015.23 1015.44 1015.49 1015.41 1015.23 1015.02 1014.88 1014.84 1014.93 1015.14 1015.42 1015.72 1015.95 1016.07 1016.05 1015.91 1015.67 1015.41 1015.19 1015.07 1015.08 1015.21 1015.45 1015.75 1016.04 1016.30 1016.48 1016.58 1016.62 1016.63 1016.65 1016.72 1016.87 1017.08 1017.34 1017.63 1017.90 1018.11 1018.26 1018.34 1018.35 1018.34 1018.32 1018.34 1018.41
1013.72 1014.21 1014.77 1015.31 1015.74 1016.01 1016.08 1015.97 1015.72 1015.43 1015.17 1015.01 1014.99 1015.10 1015.31 1015.57 1015.79 1015.93 1015.96 1015.86 1015.68 1015.46 1015.27 1015.15 1015.15 1015.27 1015.48 1015.76 1016.03 1016.27 1016.45 1016.54 1016.58 1016.59 1016.62 1016.69 1016.82 1017.04 1017.31 1017.61 1017.90 1018.14 1018.32 1018.43 1018.47 1018.47 1018.46 1018.46 1018.50
1013.83 1014.41 1015.06 1015.67 1016.14 1016.42 1016.47 1016.30 1015.99 1015.60 1015.24 1014.97 1014.86 1014.89 1015.06 1015.30 1015.55 1015.73 1015.82 1015.80 1015.69 1015.53 1015.37 1015.28 1015.27 1015.37 1015.55 1015.79 1016.03 1016.25 1016.41 1016.50 1016.53 1016.54 1016.55 1016.62 1016.75 1016.96 1017.23 1017.54 1017.85 1018.14 1018.37 1018.53 1018.63 1018.67 1018.68 1018.69 1018.71
1013.92 1014.57 1015.25 1015.87 1016.33 1016.57 1016.57 1016.35 1015.96 1015.50 1015.06 1014.73 1014.55 1014.56 1014.71 1014.97 1015.26 1015.51 1015.68 1015.75 1015.72 1015.63 1015.52 1015.45 1015.44 1015.51 1015.66 1015.85 1016.06 1016.25 1016.38 1016.45 1016.48 1016.48 1016.49 1016.54 1016.65 1016.85 1017.11 1017.43 1017.77 1018.10 1018.39 1018.62 1018.79 1018.90 1018.96 1019.00 1019.02
1013.98 1014.64 1015.29 1015.86 1016.26 1016.43 1016.36 1016.07 1015.62 1015.12 1014.64 1014.29 1014.11 1014.12 1014.31 1014.61 1014.96 1015.30 1015.56 1015.72 1015.78 1015.76 1015.71 1015.66 1015.65 1015.70 1015.82 1015.97 1016.14 1016.29 1016.40 1016.45 1016.46 1016.45 1016.45 1016.48 1016.58 1016.75 1017.00 1017.32 1017.67 1018.03 1018.37 1018.68 1018.93 1019.12 1019.26 1019.34 1019.39
1013.99 1014.59 1015.16 1015.62 1015.91 1015.98 1015.83 1015.48 1015.00 1014.49 1014.03 1013.71 1013.57 1013.63 1013.87 1014.24 1014.67 1015.09 1015.44 1015.69 1015.84 1015.90 1015.90 1015.89 1015.89 1015.93 1016.02 1016.14 1016.28 1016.39 1016.48 1016.52 1016.52 1016.51 1016.49 1016.51 1016.58 1016.72 1016.95 1017.24 1017.59 1017.97 1018.35 1018.71 1019.04 1019.32 1019.53 1019.68 1019.77
1013.95 1014.44 1014.87 1015.18 1015.32 1015.27 1015.03 1014.64 1014.17 1013.69 1013.29 1013.04 1012.98 1013.12 1013.43 1013.87 1014.37 1014.86 1015.29 1015.63 1015.86 1015.99 1016.06 1016.09 1016.12 1016.17 1016.25 1016.35 1016.47 1016.57 1016.64 1016.68 1016.68 1016.66 1016.64 1016.65 1016.70 1016.81 1017.00 1017.26 1017.59 1017.96 1018.35 1018.75 1019.13 1019.48 1019.77 1019.98 1020.12
Thickness
5845 5848 5850 5845 5832 5807 5786 5790 5798 5793 5792 5796 5796 5793 5783 5776 5772 5757 5773 5780 5777 5775 5769 5762 5759 5759 5758 5757 5757 5757 5757 5756 5756 5756 5756 5755 5756 5755 5755 5754 5754 5753 5752 5752 5751 5751 5750 5750 5749
5854 5853 5850 5845 5818 5788 5780 5793 5791 5792 5795 5798 5795 5791 5783 5774 5777 5773 5775 5776 5776 5774 5770 5764 5758 5757 5757 5756 5756 5756 5755 5755 5754 5754 5754 5754 5753 5753 5753 5752 5752 5751 5751 5750 5749 5749 5749 5748 5747
5858 5857 5849 5835 5808 5791 5785 5794 5793 5797 5801 5798 5791 5790 5783 5773 5775 5776 5778 5777 5776 5772 5768 5761 5757 5756 5755 5755 5754 5754 5754 5753 5753 5752 5752 5752 5752 5751 5751 5750 5750 5749 5749 5748 5748 5747 5747 5746 5745
5859 5855 5850 5825 5799 5800 5800 5800 5801 5798 5797 5798 5793 5783 5781 5782 5782 5781 5779 5777 5775 5771 5768 5760 5756 5755 5754 5753 5753 5752 5752 5751 5751 5750 5750 5750 5750 5749 5749 5748 5748 5747 5747 5746 5746 5745 5745 5744 5744
5863 5854 5832 5811 5801 5806 5810 5809 5808 5800 5795 5795 5793 5779 5772 5780 5785 5783 5779 5777 5775 5773 5768 5762 5755 5754 5752 5752 5751 5751 5750 5750 5749 5749 5748 5748 5748 5747 5747 5746 5745 5745 5745 5745 5744 5744 5743 5743 5742
5858 5853 5823 5803 5800 5807 5812 5814 5810 5800 5795 5795 5791 5780 5771 5779 5781 5781 5781 5779 5777 5773 5768 5760 5754 5753 5751 5750 5750 5749 5748 5748 5747 5747 5747 5747 5746 5746 5745 5744 5744 5743 5743 5743 5743 5742 5742 5742 5741
5853 5843 5820 5812 5804 5805 5811 5818 5811 5802 5795 5795 5797 5782 5775 5778 5782 5783 5780 5778 5776 5773 5769 5764 5760 5754 5751 5749 5748 5748 5747 5746 5746 5746 5745 5745 5745 5744 5744 5743 5743 5742 5742 5742 5741 5741 5741 5741 5740
5863 5850 5826 5819 5810 5807 5817 5819 5815 5808 5799 5805 5804 5786 5776 5779 5784 5783 5779 5776 5774 5772 5769 5764 5762 5758 5755 5752 5748 5747 5746 5745 5745 5745 5744 5744 5744 5744 5743 5742 5741 5741 5741 5741 5741 5741 5740 5740 5739
5867 5844 5823 5822 5818 5815 5821 5816 5815 5818 5808 5805 5805 5801 5794 5788 5785 5780 5775 5772 5770 5768 5767 5767 5764 5759 5757 5755 5750 5748 5746 5745 5745 5744 5743 5745 5748 5747 5745 5742 5741 5740 5740 5740 5740 5740 5740 5740 5739
5860 5836 5828 5835 5836 5828 5823 5820 5817 5812 5802 5798 5797 5796 5794 5788 5783 5777 5773 5770 5767 5765 5765 5765 5763 5759 5757 5755 5751 5750 5750 5747 5747 5746 5746 5747 5745 5746 5745 5740 5740 5740 5740 5740 5739 5740 5740 5742 5743
5855 5838 5838 5841 5843 5838 5827 5824 5825 5814 5803 5803 5797 5792 5791 5787 5783 5779 5776 5773 5769 5767 5765 5764 5761 5757 5757 5754 5753 5751 5750 5747 5747 5746 5745 5745 5746 5746 5746 5744 5742 5741 5741 5743 5741 5742 5744 5744 5743
5849 5845 5846 5844 5845 5840 5832 5828 5823 5820 5815 5818 5811 5803 5795 5788 5785 5782 5778 5774 5771 5768 5765 5764 5760 5757 5755 5753 5752 5750 5750 5749 5749 5745 5746 5746 5746 5745 5746 5745 5745 5745 5744 5743 5744 5743 5743 5743 5743
5846 5844 5848 5849 5847 5843 5837 5830 5825 5820 5824 5822 5813 5803 5796 5793 5789 5786 5783 5778 5773 5767 5765 5762 5759 5756 5753 5751 5750 5750 5749 5749 5748 5746 5745 5745 5746 5746 5745 5744 5743 5746 5745 5744 5743 5744 5743 5742 5742
5849 5849 5848 5848 5845 5842 5833 5830 5826 5821 5825 5817 5809 5802 5800 5796 5792 5787 5782 5777 5773 5770 5767 5764 5759 5756 5753 5751 5749 5749 5748 5746 5747 5746 5745 5744 5745 5745 5745 5744 5743 5745 5745 5745 5743 5743 5742 5743 5743
5855 5845 5843 5845 5844 5842 5837 5822 5823 5827 5825 5815 5809 5805 5802 5799 5795 5789 5785 5780 5777 5773 5770 5765 5762 5758 5754 5752 5750 5750 5748 5748 5747 5745 5744 5743 5744 5743 5743 5745 5744 5744 5744 5743 5743 5742 5743 5743 5744
5851 5842 5832 5838 5844 5842 5833 5817 5827 5833 5825 5814 5811 5807 5802 5799 5797 5794 5790 5785 5782 5777 5772 5768 5767 5761 5757 5754 5751 5751 5749 5747 5746 5745 5744 5743 5743 5742 5742 5744 5745 5743 5743 5743 5743 5743 5744 5744 5744
5839 5833 5831 5833 5844 5842 5834 5825 5830 5835 5827 5817 5813 5810 5805 5800 5799 5797 5794 5789 5784 5779 5774 5769 5767 5763 5759 5756 5752 5750 5748 5746 5746 5745 5744 5744 5743 5743 5743 5744 5743 5743 5744 5744 5744 5744 5744 5743 5742
5829 5833 5830 5831 5840 5839 5832 5831 5833 5834 5830 5823 5818 5814 5808 5804 5802 5801 5797 5794 5788 5782 5776 5772 5768 5764 5760 5758 5754 5752 5750 5749 5747 5746 5745 5744 5744 5743 5743 5744 5743 5744 5744 5744 5743 5742 5742 5742 5742
5839 5834 5830 5834 5843 5837 5832 5831 5833 5834 5830 5825 5821 5817 5812 5808 5808 5805 5800 5796 5791 5785 5779 5774 5770 5766 5762 5759 5756 5753 5751 5751 5750 5748 5746 5745 5745 5745 5744 5745 5744 5743 5744 5743 5744 5743 5742 5742 5743
5836 5830 5830 5834 5840 5837 5832 5832 5838 5837 5832 5831 5826 5820 5815 5812 5808 5803 5800 5797 5792 5787 5782 5777 5773 5769 5765 5762 5759 5757 5755 5754 5753 5751 5748 5746 5745 5745 5745 5743 5744 5745 5744 5743 5742 5742 5742 5742 5743
5831 5831 5831 5829 5834 5838 5832 5827 5832 5836 5837 5834 5831 5828 5823 5817 5810 5805 5802 5799 5795 5789 5785 5781 5776 5772 5768 5765 5762 5759 5755 5754 5753 5751 5750 5748 5747 5746 5745 5745 5744 5744 5745 5744 5743 5742 5740 5739 5742
5823 5836 5835 5830 5826 5826 5827 5818 5827 5834 5831 5831 5831 5830 5827 5822 5816 5810 5806 5800 5795 5792 5789 5783 5778 5773 5770 5766 5763 5759 5755 5752 5752 5751 5752 5750 5748 5747 5746 5745 5744 5744 5745 5744 5744 5744 5742 5740 5738
5831 5837 5835 5832 5827 5823 5826 5820 5828 5834 5827 5831 5833 5832 5830 5827 5821 5814 5809 5803 5799 5796 5791 5786 5779 5774 5770 5767 5763 5759 5757 5756 5755 5753 5751 5750 5749 5747 5746 5746 5745 5744 5744 5744 5743 5743 5742 5742 5739
5834 5831 5828 5829 5828 5806 5816 5813 5818 5834 5832 5835 5836 5833 5831 5828 5823 5817 5813 5806 5801 5798 5793 5788 5781 5775 5772 5768 5764 5760 5758 5755 5753 5751 5750 5750 5750 5748 5747 5746 5745 5744 5744 5744 5743 5742 5741 5741 5740
5829 5818 5802 5798 5801 5804 5818 5813 5820 5837 5842 5841 5838 5835 5834 5830 5824 5817 5811 5806 5801 5797 5793 5788 5781 5775 5773 5769 5765 5762 5759 5756 5753 5751 5750 5748 5748 5747 5746 5746 5745 5744 5744 5743 5743 5742 5741 5740 5738
5824 5824 5801 5788 5794 5807 5811 5811 5830 5843 5845 5846 5844 5841 5836 5831 5826 5819 5813 5808 5803 5798 5794 5789 5782 5776 5773 5769 5766 5763 5760 5757 5755 5752 5751 5749 5747 5747 5745 5745 5744 5743 5743 5743 5742 5742 5740 5739 5737
5818 5821 5834 5817 5806 5801 5811 5819 5833 5842 5840 5841 5840 5838 5834 5831 5827 5821 5815 5811 5805 5800 5795 5789 5783 5778 5774 5770 5766 5762 5759 5757 5755 5752 5750 5749 5746 5746 5744 5743 5742 5742 5741 5740 5740 5739 5737 5736 5735
5830 5830 5818 5810 5787 5785 5798 5807 5819 5828 5831 5835 5835 5834 5833 5831 5827 5822 5818 5813 5808 5802 5796 5791 5785 5779 5775 5771 5767 5763 5759 5756 5754 5752 5748 5747 5745 5743 5742 5741 5740 5739 5739 5737 5737 5736 5735 5733 5731
5811 5813 5815 5813 5810 5792 5788 5807 5838 5834 5835 5835 5836 5836 5833 5830 5827 5822 5818 5814 5808 5802 5796 5790 5785 5779 5775 5771 5767 5763 5759 5756 5753 5750 5747 5745 5743 5741 5740 5739 5737 5736 5735 5734 5733 5732 5731 5729 5727
5823 5819 5813 5797 5792 5799 5801 5812 5842 5841 5842 5840 5837 5835 5833 5830 5827 5823 5817 5812 5806 5801 5796 5791 5786 5781 5776 5772 5766 5761 5758 5755 5751 5748 5745 5743 5741 5739 5738 5736 5734 5733 5732 5730 5729 5727 5726 5724 5722